^^
Datos históricos de la estación: Murcia-Puente Tocinos
Diario Informe para Enero 7, 2019 Unidades:  Métrico    Inglés   Ambas
Diario Semanal Mensual Anual Configurable
  Máximo: Mínimo: Media:
Temperatura: 16.3 °C 4.2 °C 9.5 °C
Punto de rocio: 8.7 °C -2.3 °C 1.5 °C
Humedad: 84% 30% 60%
Velocidad viento: 11.9km/h 0.0km/h 5.8km/h
Racha viento: 20.9km/h - -
Viento- - SSE
Presión: 1028.3 hPa 1025.2 hPa -
Precipitación: 0.0 mm    
Historical Graphs
 
 
Tabla de datos para Enero 7, 2019
Hora Temperatura Punto de rocio Presión Viento Velocidad viento Racha viento Humedad Intensidad lluvia(por hora) Nubes
00:04 7.7 °C 0.9 °C 1025.9 hPa South 3.2 km/h 7.4 km/h 62% 0.0 mm CLR
00:09 7.7 °C 0.9 °C 1025.9 hPa South 5.8 km/h 7.4 km/h 62% 0.0 mm CLR
00:14 7.7 °C 0.9 °C 1025.9 hPa South 5.8 km/h 3.7 km/h 62% 0.0 mm CLR
00:19 7.7 °C 0.9 °C 1025.9 hPa South 3.2 km/h   62% 0.0 mm CLR
00:25 7.7 °C 0.9 °C 1025.9 hPa South 3.2 km/h 4.8 km/h 62% 0.0 mm CLR
00:29 7.7 °C 0.4 °C 1025.9 hPa WSW 2.3 km/h 5.6 km/h 60% 0.0 mm CLR
00:35 7.6 °C 0.3 °C 1026.1 hPa WNW 2.3 km/h 7.4 km/h 60% 0.0 mm CLR
00:39 7.5 °C 0.0 °C 1026.1 hPa WNW 4.7 km/h 7.4 km/h 59% 0.0 mm CLR
00:44 7.4 °C -0.1 °C 1026.1 hPa WSW 4.7 km/h 7.4 km/h 59% 0.0 mm CLR
00:49 7.5 °C 0.0 °C 1025.9 hPa WSW 5.0 km/h 7.6 km/h 59% 0.0 mm CLR
00:54 7.5 °C -0.2 °C 1025.9 hPa WSW 5.0 km/h 7.4 km/h 58% 0.0 mm CLR
00:59 7.6 °C -0.4 °C 1025.9 hPa WSW 4.7 km/h 7.4 km/h 57% 0.0 mm CLR
01:04 7.8 °C -0.2 °C 1025.9 hPa WSW 4.7 km/h 7.4 km/h 57% 0.0 mm CLR
01:09 7.8 °C 0.1 °C 1025.9 hPa WSW 5.0 km/h 5.6 km/h 58% 0.0 mm CLR
01:14 7.8 °C 0.3 °C 1025.9 hPa WSW 5.0 km/h 5.6 km/h 59% 0.0 mm CLR
01:19 7.6 °C 0.3 °C 1025.9 hPa South 3.9 km/h 7.6 km/h 60% 0.0 mm CLR
01:25 7.3 °C 0.3 °C 1025.9 hPa South 3.9 km/h 5.6 km/h 61% 0.0 mm CLR
01:29 7.1 °C 0.3 °C 1025.9 hPa South 4.7 km/h 3.9 km/h 62% 0.0 mm CLR
01:34 7.0 °C 0.4 °C 1025.8 hPa South 4.7 km/h 5.6 km/h 63% 0.0 mm CLR
01:39 6.9 °C 0.1 °C 1025.8 hPa South 3.9 km/h 3.7 km/h 62% 0.0 mm CLR
01:44 7.0 °C 0.2 °C 1025.8 hPa South 3.9 km/h 5.6 km/h 62% 0.0 mm CLR
01:49 7.1 °C 0.3 °C 1026.0 hPa South 3.2 km/h 5.6 km/h 62% 0.0 mm
01:54 7.1 °C 0.5 °C 1026.0 hPa South 3.2 km/h 5.6 km/h 63% 0.0 mm
01:59 7.0 °C 0.4 °C 1026.0 hPa South 3.9 km/h 8.4 km/h 63% 0.0 mm
02:05 6.8 °C 0.2 °C 1025.9 hPa South 3.9 km/h 7.4 km/h 63% 0.0 mm
02:09 6.6 °C 0.3 °C 1025.9 hPa SSE 5.8 km/h 5.6 km/h 64% 0.0 mm
02:14 6.4 °C 0.1 °C 1025.9 hPa South 5.8 km/h 7.4 km/h 64% 0.0 mm
02:19 6.2 °C 0.1 °C 1026.0 hPa South 5.8 km/h 7.4 km/h 65% 0.0 mm CLR
02:24 6.1 °C 0.0 °C 1026.0 hPa South 5.8 km/h 7.4 km/h 65% 0.0 mm CLR
02:29 6.1 °C 0.2 °C 1026.0 hPa SSE 5.8 km/h 7.4 km/h 66% 0.0 mm CLR
02:34 6.1 °C 0.2 °C 1026.1 hPa SE 5.8 km/h 5.6 km/h 66% 0.0 mm CLR
02:39 6.0 °C 0.1 °C 1026.1 hPa SE 4.7 km/h 5.8 km/h 66% 0.0 mm CLR
02:44 5.8 °C -0.1 °C 1026.1 hPa SE 4.7 km/h 7.4 km/h 66% 0.0 mm CLR
02:49 5.6 °C -0.3 °C 1026.3 hPa SSE 5.0 km/h 7.4 km/h 66% 0.0 mm CLR
02:54 5.6 °C -0.4 °C 1026.3 hPa SSE 5.0 km/h 7.4 km/h 65% 0.0 mm CLR
02:59 5.7 °C -0.4 °C 1026.3 hPa South 5.0 km/h 9.3 km/h 65% 0.0 mm CLR
03:05 5.9 °C -0.4 °C 1026.3 hPa South 4.8 km/h 9.7 km/h 64% 0.0 mm CLR
03:09 6.1 °C -0.4 °C 1026.3 hPa South 6.9 km/h 7.4 km/h 63% 0.0 mm CLR
03:14 6.0 °C -0.7 °C 1026.3 hPa SSE 6.9 km/h 9.5 km/h 62% 0.0 mm CLR
03:19 5.9 °C -0.6 °C 1026.4 hPa SSE 6.4 km/h 7.6 km/h 63% 0.0 mm CLR
03:24 5.9 °C -0.6 °C 1026.4 hPa SSE 6.4 km/h 7.4 km/h 63% 0.0 mm CLR
03:29 5.8 °C -0.5 °C 1026.4 hPa South 5.8 km/h 7.4 km/h 64% 0.0 mm CLR
03:34 5.9 °C -0.6 °C 1026.5 hPa South 5.8 km/h 7.4 km/h 63% 0.0 mm CLR
03:39 6.0 °C -0.5 °C 1026.5 hPa SSW 5.8 km/h 9.3 km/h 63% 0.0 mm CLR
03:44 6.1 °C -0.4 °C 1026.5 hPa SW 5.8 km/h 7.4 km/h 63% 0.0 mm CLR
03:49 6.2 °C -0.6 °C 1026.4 hPa SW 5.8 km/h 7.4 km/h 62% 0.0 mm CLR
03:54 6.3 °C -0.7 °C 1026.4 hPa SW 5.8 km/h 7.4 km/h 61% 0.0 mm CLR
03:59 6.5 °C -0.7 °C 1026.4 hPa SW 5.0 km/h 9.3 km/h 60% 0.0 mm CLR
04:04 6.7 °C -1.0 °C 1026.4 hPa SW 5.0 km/h 9.3 km/h 58% 0.0 mm CLR
04:09 6.7 °C -0.8 °C 1026.4 hPa South 5.8 km/h 11.1 km/h 59% 0.0 mm CLR
04:14 6.5 °C -0.9 °C 1026.4 hPa South 5.8 km/h 7.6 km/h 59% 0.0 mm CLR
04:19 6.3 °C -0.9 °C 1026.2 hPa South 5.8 km/h 7.4 km/h 60% 0.0 mm CLR
04:24 6.0 °C -0.9 °C 1026.2 hPa SSE 5.8 km/h 9.3 km/h 61% 0.0 mm CLR
04:29 5.7 °C -0.8 °C 1026.2 hPa SSE 5.8 km/h 9.3 km/h 63% 0.0 mm CLR
04:35 5.4 °C -0.9 °C 1026.3 hPa SSE 5.8 km/h 7.4 km/h 64% 0.0 mm CLR
04:39 5.1 °C -0.9 °C 1026.3 hPa SSE 5.8 km/h 7.4 km/h 65% 0.0 mm CLR
04:44 4.9 °C -0.9 °C 1026.3 hPa South 5.8 km/h 7.4 km/h 66% 0.0 mm CLR
04:49 4.8 °C -0.8 °C 1026.1 hPa SSE 5.8 km/h 9.3 km/h 67% 0.0 mm CLR
04:55 4.7 °C -0.9 °C 1026.1 hPa SSE 4.8 km/h 9.7 km/h 67% 0.0 mm CLR
04:59 4.7 °C -0.9 °C 1026.1 hPa SSW 6.4 km/h 9.3 km/h 67% 0.0 mm CLR
05:05 4.8 °C -1.0 °C 1025.9 hPa SSE 6.4 km/h 9.3 km/h 66% 0.0 mm CLR
05:09 4.9 °C -0.9 °C 1025.9 hPa SSE 7.6 km/h 9.3 km/h 66% 0.0 mm CLR
05:14 4.8 °C -1.0 °C 1025.9 hPa South 7.6 km/h 9.3 km/h 66% 0.0 mm CLR
05:19 4.8 °C -1.2 °C 1025.9 hPa SSW 6.9 km/h 9.3 km/h 65% 0.0 mm CLR
05:25 5.1 °C -1.2 °C 1025.9 hPa SSW 6.9 km/h 9.3 km/h 64% 0.0 mm CLR
05:29 5.2 °C -1.1 °C 1025.9 hPa South 7.6 km/h 7.4 km/h 64% 0.0 mm CLR
05:34 5.2 °C -1.1 °C 1025.9 hPa SSW 7.6 km/h 7.4 km/h 64% 0.0 mm CLR
05:39 5.2 °C -1.1 °C 1025.9 hPa SSE 5.0 km/h 7.4 km/h 64% 0.0 mm CLR
05:45 5.2 °C -1.1 °C 1025.9 hPa SSE 5.0 km/h 7.4 km/h 64% 0.0 mm CLR
05:49 5.2 °C -1.1 °C 1025.9 hPa SSE 5.8 km/h 8.4 km/h 64% 0.0 mm CLR
05:54 4.9 °C -1.1 °C 1025.9 hPa South 5.8 km/h 9.3 km/h 65% 0.0 mm CLR
05:59 4.8 °C -1.2 °C 1025.9 hPa South 6.9 km/h 9.3 km/h 65% 0.0 mm CLR
06:04 4.6 °C -1.4 °C 1025.9 hPa SE 6.9 km/h 11.1 km/h 65% 0.0 mm CLR
06:09 4.4 °C -1.4 °C 1025.9 hPa SSE 6.9 km/h 11.1 km/h 66% 0.0 mm CLR
06:15 4.2 °C -1.4 °C 1025.9 hPa SSE 6.9 km/h 7.4 km/h 67% 0.0 mm CLR
06:19 4.2 °C -1.4 °C 1025.8 hPa South 6.9 km/h 7.4 km/h 67% 0.0 mm CLR
06:25 4.2 °C -1.4 °C 1025.8 hPa South 6.9 km/h 7.4 km/h 67% 0.0 mm CLR
06:29 4.2 °C -1.4 °C 1025.8 hPa South 5.8 km/h 7.6 km/h 67% 0.0 mm CLR
06:35 4.2 °C -1.4 °C 1025.9 hPa South 4.8 km/h 11.3 km/h 67% 0.0 mm CLR
06:39 4.3 °C -1.3 °C 1025.9 hPa SSE 6.4 km/h 7.4 km/h 67% 0.0 mm CLR
06:45 4.4 °C -1.2 °C 1025.9 hPa South 6.4 km/h 9.3 km/h 67% 0.0 mm CLR
06:49 4.4 °C -1.4 °C 1026.1 hPa South 6.4 km/h 11.1 km/h 66% 0.0 mm CLR
06:54 4.4 °C -1.4 °C 1026.1 hPa South 6.4 km/h 9.3 km/h 66% 0.0 mm CLR
06:59 4.4 °C -1.4 °C 1026.1 hPa South 7.6 km/h 9.3 km/h 66% 0.0 mm CLR
07:05 4.4 °C -1.4 °C 1026.1 hPa South 7.6 km/h 11.1 km/h 66% 0.0 mm CLR
07:09 4.5 °C -1.5 °C 1026.1 hPa South 7.6 km/h 9.3 km/h 65% 0.0 mm CLR
07:14 4.5 °C -1.5 °C 1026.1 hPa SSE 7.6 km/h 9.3 km/h 65% 0.0 mm CLR
07:19 4.4 °C -1.6 °C 1026.1 hPa South 6.9 km/h 9.5 km/h 65% 0.0 mm CLR
07:24 4.4 °C -1.8 °C 1026.1 hPa SSE 6.9 km/h 9.3 km/h 64% 0.0 mm CLR
07:29 4.5 °C -1.9 °C 1026.1 hPa South 7.6 km/h 11.1 km/h 63% 0.0 mm CLR
07:34 4.8 °C -2.1 °C 1026.2 hPa South 7.6 km/h 13.0 km/h 61% 0.0 mm CLR
07:39 4.9 °C -2.2 °C 1026.2 hPa SSW 8.7 km/h 9.3 km/h 60% 0.0 mm CLR
07:44 5.1 °C -2.1 °C 1026.2 hPa SSW 8.7 km/h 9.3 km/h 60% 0.0 mm CLR
07:49 5.2 °C -2.2 °C 1026.3 hPa South 7.6 km/h 9.3 km/h 59% 0.0 mm CLR
07:54 5.3 °C -2.3 °C 1026.3 hPa SSW 7.6 km/h 11.1 km/h 58% 0.0 mm CLR
07:59 5.4 °C -2.2 °C 1026.3 hPa SSW 8.4 km/h 9.3 km/h 58% 0.0 mm CLR
08:05 5.3 °C -2.3 °C 1026.4 hPa South 8.4 km/h 9.3 km/h 58% 0.0 mm CLR
08:09 5.3 °C -2.3 °C 1026.4 hPa South 6.9 km/h 7.6 km/h 58% 0.0 mm CLR
08:14 5.3 °C -2.1 °C 1026.4 hPa South 6.9 km/h 9.3 km/h 59% 0.0 mm CLR
08:19 5.2 °C -2.2 °C 1026.4 hPa South 6.9 km/h 9.3 km/h 59% 0.0 mm CLR
08:24 5.1 °C -2.3 °C 1026.4 hPa South 6.9 km/h 9.5 km/h 59% 0.0 mm CLR
08:29 5.2 °C -2.2 °C 1026.4 hPa South 7.6 km/h 7.4 km/h 59% 0.0 mm CLR
08:34 5.3 °C -2.1 °C 1026.5 hPa South 7.6 km/h 9.5 km/h 59% 0.0 mm CLR
08:39 5.3 °C -2.1 °C 1026.5 hPa South 6.9 km/h 9.3 km/h 59% 0.0 mm CLR
08:45 5.3 °C -2.1 °C 1026.5 hPa SSW 6.9 km/h 11.1 km/h 59% 0.0 mm CLR
08:49 5.3 °C -2.1 °C 1026.6 hPa SSW 7.6 km/h 9.3 km/h 59% 0.0 mm CLR
08:54 5.5 °C -2.1 °C 1026.6 hPa SSW 7.6 km/h 9.3 km/h 58% 0.0 mm CLR
08:59 5.7 °C -1.9 °C 1026.6 hPa South 6.9 km/h 8.4 km/h 58% 0.0 mm CLR
09:05 5.8 °C -1.8 °C 1026.8 hPa SSW 8.0 km/h 9.7 km/h 58% 0.0 mm CLR
09:09 5.9 °C -1.7 °C 1026.8 hPa SSW 5.8 km/h 7.4 km/h 58% 0.0 mm CLR
09:14 6.0 °C -1.7 °C 1026.8 hPa SSE 5.8 km/h 9.3 km/h 58% 0.0 mm CLR
09:19 6.1 °C -1.3 °C 1026.9 hPa SSE 5.8 km/h 9.3 km/h 59% 0.0 mm CLR
09:24 6.0 °C -1.4 °C 1026.9 hPa SSE 5.8 km/h 9.3 km/h 59% 0.0 mm CLR
09:29 5.9 °C -1.5 °C 1026.9 hPa SSE 5.8 km/h 9.3 km/h 59% 0.0 mm CLR
09:34 5.9 °C -1.7 °C 1027.1 hPa South 5.8 km/h 8.7 km/h 58% 0.0 mm CLR
09:39 6.0 °C -1.7 °C 1027.1 hPa SSW 6.9 km/h 11.9 km/h 58% 0.0 mm CLR
09:44 6.1 °C -1.6 °C 1027.1 hPa South 6.9 km/h 11.1 km/h 58% 0.0 mm CLR
09:49 6.1 °C -1.3 °C 1027.4 hPa SSE 8.4 km/h 9.3 km/h 59% 0.0 mm CLR
09:55 6.2 °C -1.7 °C 1027.4 hPa South 8.4 km/h 11.1 km/h 57% 0.0 mm CLR
09:59 6.3 °C -1.6 °C 1027.4 hPa South 8.4 km/h 9.3 km/h 57% 0.0 mm CLR
10:04 6.4 °C -1.5 °C 1027.5 hPa South 8.4 km/h 9.3 km/h 57% 0.0 mm CLR
10:09 6.6 °C -1.3 °C 1027.5 hPa SSE 6.9 km/h 11.1 km/h 57% 0.0 mm CLR
10:14 6.7 °C -1.2 °C 1027.5 hPa South 6.9 km/h 9.5 km/h 57% 0.0 mm CLR
10:19 6.9 °C -1.1 °C 1027.5 hPa SSE 8.4 km/h 9.3 km/h 57% 0.0 mm CLR
10:24 7.3 °C -0.9 °C 1027.5 hPa South 8.4 km/h 9.3 km/h 56% 0.0 mm CLR
10:29 7.6 °C -0.9 °C 1027.5 hPa SSE 6.9 km/h 11.1 km/h 55% 0.0 mm CLR
10:35 7.7 °C -1.3 °C 1027.5 hPa South 8.0 km/h 14.5 km/h 53% 0.0 mm CLR
10:39 7.9 °C -1.4 °C 1027.5 hPa SSE 8.7 km/h 11.1 km/h 52% 0.0 mm CLR
10:44 8.1 °C -1.7 °C 1027.5 hPa SSW 8.7 km/h 11.1 km/h 50% 0.0 mm CLR
10:49 8.4 °C -1.7 °C 1027.4 hPa SSW 7.6 km/h 11.1 km/h 49% 0.0 mm CLR
10:54 8.4 °C -1.7 °C 1027.4 hPa South 7.6 km/h 11.1 km/h 49% 0.0 mm CLR
10:59 8.5 °C -1.6 °C 1027.4 hPa SSW 8.4 km/h 9.3 km/h 49% 0.0 mm CLR
11:04 8.7 °C -2.0 °C 1027.4 hPa SW 8.4 km/h 8.7 km/h 47% 0.0 mm CLR
11:09 8.9 °C -1.8 °C 1027.4 hPa SW 6.4 km/h 7.6 km/h 47% 0.0 mm CLR
11:14 9.1 °C -1.6 °C 1027.4 hPa SW 6.4 km/h 9.3 km/h 47% 0.0 mm CLR
11:19 9.3 °C -1.7 °C 1027.4 hPa SW 6.4 km/h 7.4 km/h 46% 0.0 mm CLR
11:25 9.6 °C -1.8 °C 1027.4 hPa SW 6.4 km/h 10.0 km/h 45% 0.0 mm CLR
11:29 9.8 °C -1.6 °C 1027.4 hPa SW 5.0 km/h 8.7 km/h 45% 0.0 mm CLR
11:35 10.2 °C -1.6 °C 1027.3 hPa SW 5.0 km/h 5.6 km/h 44% 0.0 mm CLR
11:39 10.3 °C -1.4 °C 1027.3 hPa SW 4.7 km/h 7.4 km/h 44% 0.0 mm CLR
11:44 10.7 °C -1.4 °C 1027.3 hPa WSW 4.7 km/h 11.1 km/h 43% 0.0 mm CLR
11:49 10.9 °C -1.5 °C 1027.2 hPa WSW 5.8 km/h 7.4 km/h 42% 0.0 mm CLR
11:54 11.2 °C -1.3 °C 1027.2 hPa WNW 5.8 km/h 3.7 km/h 42% 0.0 mm CLR
11:59 11.4 °C -1.4 °C 1027.2 hPa West 3.9 km/h 7.4 km/h 41% 0.0 mm CLR
12:05 11.7 °C -1.4 °C 1027.1 hPa SSE 3.9 km/h 9.3 km/h 40% 0.0 mm CLR
12:09 12.0 °C -1.2 °C 1027.1 hPa SSE 4.7 km/h 5.6 km/h 40% 0.0 mm CLR
12:14 12.3 °C -1.3 °C 1027.1 hPa SW 4.7 km/h 7.4 km/h 39% 0.0 mm CLR
12:19 12.6 °C -1.4 °C 1027.0 hPa ESE 3.9 km/h 7.4 km/h 38% 0.0 mm CLR
12:25 12.8 °C -1.2 °C 1027.0 hPa South 3.9 km/h 7.4 km/h 38% 0.0 mm CLR
12:29 12.9 °C -1.4 °C 1027.0 hPa SE 5.8 km/h 7.4 km/h 37% 0.0 mm CLR
12:35 13.1 °C -1.3 °C 1026.8 hPa South 4.8 km/h 11.3 km/h 37% 0.0 mm CLR
12:39 13.1 °C -1.7 °C 1026.8 hPa SSE 6.4 km/h 13.0 km/h 36% 0.0 mm CLR
12:45 13.3 °C -1.5 °C 1026.8 hPa South 6.4 km/h 9.3 km/h 36% 0.0 mm CLR
12:49 13.4 °C -1.4 °C 1026.3 hPa South 7.6 km/h 11.1 km/h 36% 0.0 mm CLR
12:54 13.4 °C -1.4 °C 1026.3 hPa South 7.6 km/h 13.0 km/h 36% 0.0 mm CLR
12:59 13.4 °C -1.8 °C 1026.3 hPa SSE 8.4 km/h 11.1 km/h 35% 0.0 mm CLR
13:04 13.4 °C -1.8 °C 1026.1 hPa South 8.4 km/h 11.1 km/h 35% 0.0 mm CLR
13:09 13.5 °C -2.1 °C 1026.1 hPa SSW 7.6 km/h 9.3 km/h 34% 0.0 mm CLR
13:14 13.7 °C -1.9 °C 1026.1 hPa SSW 7.6 km/h 7.4 km/h 34% 0.0 mm CLR
13:19 13.9 °C -1.7 °C 1025.9 hPa South 4.7 km/h 7.4 km/h 34% 0.0 mm CLR
13:24 14.1 °C -1.6 °C 1025.9 hPa SSE 4.7 km/h 7.4 km/h 34% 0.0 mm CLR
13:29 14.2 °C -2.3 °C 1025.9 hPa SE 5.0 km/h 8.4 km/h 32% 0.0 mm CLR
13:35 14.3 °C -2.2 °C 1025.7 hPa SE 4.8 km/h 8.0 km/h 32% 0.0 mm CLR
13:40 14.6 °C -1.9 °C 1025.7 hPa SSE 3.2 km/h 7.4 km/h 32% 0.0 mm CLR
13:45 14.8 °C -2.2 °C 1025.7 hPa SE 3.2 km/h 8.0 km/h 31% 0.0 mm CLR
13:49 14.9 °C -2.1 °C 1025.5 hPa SSE 3.2 km/h 3.7 km/h 31% 0.0 mm CLR
13:55 15.2 °C -1.9 °C 1025.5 hPa SE 3.2 km/h 3.2 km/h 31% 0.0 mm CLR
13:59 15.4 °C -1.7 °C 1025.5 hPa Calm   4.7 km/h 31% 0.0 mm CLR
14:05 15.6 °C -1.9 °C 1025.4 hPa Calm   9.3 km/h 30% 0.0 mm CLR
14:09 15.5 °C -1.6 °C 1025.4 hPa NE 3.9 km/h 7.4 km/h 31% 0.0 mm CLR
14:14 15.5 °C -1.6 °C 1025.4 hPa NE 3.9 km/h 5.6 km/h 31% 0.0 mm CLR
14:19 15.6 °C -1.5 °C 1025.3 hPa ENE 3.9 km/h 9.5 km/h 31% 0.0 mm CLR
14:24 15.7 °C -1.4 °C 1025.3 hPa East 3.9 km/h 5.6 km/h 31% 0.0 mm CLR
14:29 15.8 °C -1.3 °C 1025.3 hPa NNW 4.7 km/h 9.3 km/h 31% 0.0 mm CLR
14:35 15.8 °C -1.3 °C 1025.2 hPa NE 4.7 km/h 9.3 km/h 31% 0.0 mm CLR
14:39 15.8 °C -0.9 °C 1025.2 hPa East 5.0 km/h 11.9 km/h 32% 0.0 mm CLR
14:44 15.9 °C -0.8 °C 1025.2 hPa ENE 5.0 km/h 9.3 km/h 32% 0.0 mm CLR
14:49 16.0 °C -0.7 °C 1025.2 hPa North 6.4 km/h 13.0 km/h 32% 0.0 mm CLR
14:55 16.1 °C -0.6 °C 1025.2 hPa NNE 8.0 km/h 12.9 km/h 32% 0.0 mm CLR
14:59 16.1 °C -0.6 °C 1025.2 hPa ENE 7.6 km/h 9.3 km/h 32% 0.0 mm CLR
15:05 16.2 °C -0.9 °C 1025.2 hPa NE 8.0 km/h 16.1 km/h 31% 0.0 mm CLR
15:09 16.2 °C -0.9 °C 1025.2 hPa NNE 8.7 km/h 13.0 km/h 31% 0.0 mm CLR
15:15 16.1 °C -1.1 °C 1025.2 hPa NNW 8.7 km/h 13.0 km/h 31% 0.0 mm CLR
15:19 16.1 °C -0.6 °C 1025.3 hPa NNE 8.4 km/h 11.1 km/h 32% 0.0 mm CLR
15:24 16.0 °C -0.7 °C 1025.3 hPa NNE 8.4 km/h 13.0 km/h 32% 0.0 mm CLR
15:29 16.0 °C -0.3 °C 1025.3 hPa NE 8.4 km/h 9.3 km/h 33% 0.0 mm CLR
15:35 16.1 °C -0.6 °C 1025.3 hPa ENE 8.4 km/h 11.1 km/h 32% 0.0 mm CLR
15:39 16.1 °C -0.6 °C 1025.3 hPa NW 6.9 km/h 14.8 km/h 32% 0.0 mm CLR
15:44 16.1 °C -0.2 °C 1025.3 hPa NE 6.9 km/h 11.1 km/h 33% 0.0 mm CLR
15:49 16.2 °C -0.1 °C 1025.3 hPa NE 8.4 km/h 11.1 km/h 33% 0.0 mm CLR
15:54 16.2 °C -0.6 °C 1025.3 hPa East 8.4 km/h 18.5 km/h 32% 0.0 mm CLR
15:59 16.2 °C -0.6 °C 1025.3 hPa NE 9.5 km/h 13.0 km/h 32% 0.0 mm CLR
16:05 16.2 °C -0.9 °C 1025.2 hPa East 9.5 km/h 13.0 km/h 31% 0.0 mm CLR
16:10 16.3 °C -0.4 °C 1025.2 hPa ENE 10.3 km/h 9.3 km/h 32% 0.0 mm CLR
16:14 16.2 °C -0.1 °C 1025.2 hPa NNE 10.3 km/h 20.4 km/h 33% 0.0 mm CLR
16:19 16.1 °C 0.2 °C 1025.3 hPa NE 10.0 km/h 16.7 km/h 34% 0.0 mm CLR
16:25 16.1 °C 0.6 °C 1025.3 hPa NNE 10.0 km/h 13.0 km/h 35% 0.0 mm CLR
16:29 16.1 °C 1.4 °C 1025.3 hPa NNE 10.0 km/h 16.7 km/h 37% 0.0 mm CLR
16:35 15.9 °C 1.9 °C 1025.4 hPa NE 9.7 km/h 20.9 km/h 39% 0.0 mm CLR
16:39 15.8 °C 2.9 °C 1025.4 hPa ENE 11.9 km/h 20.9 km/h 42% 0.0 mm CLR
16:44 15.6 °C 3.4 °C 1025.4 hPa ENE 11.9 km/h 14.8 km/h 44% 0.0 mm CLR
16:49 15.4 °C 3.5 °C 1025.5 hPa NNE 11.1 km/h 16.7 km/h 45% 0.0 mm CLR
16:55 15.3 °C 4.6 °C 1025.5 hPa NE 11.1 km/h 18.5 km/h 49% 0.0 mm CLR
16:59 15.0 °C 4.7 °C 1025.5 hPa NE 11.1 km/h 13.0 km/h 50% 0.0 mm CLR
17:05 14.9 °C 5.4 °C 1025.7 hPa NE 11.3 km/h 17.7 km/h 53% 0.0 mm CLR
17:09 14.7 °C 6.0 °C 1025.7 hPa ENE 10.0 km/h 14.8 km/h 56% 0.0 mm CLR
17:15 14.7 °C 6.5 °C 1025.7 hPa NE 9.7 km/h 16.1 km/h 58% 0.0 mm CLR
17:19 14.5 °C 7.1 °C 1025.9 hPa NNE 9.5 km/h 14.8 km/h 61% 0.0 mm CLR
17:25 14.4 °C 7.7 °C 1025.9 hPa NE 9.5 km/h 11.1 km/h 64% 0.0 mm CLR
17:29 14.3 °C 7.8 °C 1025.9 hPa ENE 9.5 km/h 9.3 km/h 65% 0.0 mm CLR
17:35 14.2 °C 7.9 °C 1026.0 hPa ENE 9.7 km/h 12.9 km/h 66% 0.0 mm CLR
17:39 14.0 °C 8.2 °C 1026.0 hPa ENE 6.4 km/h 9.3 km/h 68% 0.0 mm CLR
17:44 13.9 °C 8.3 °C 1026.0 hPa ENE 6.4 km/h 7.4 km/h 69% 0.0 mm CLR
17:49 13.7 °C 8.3 °C 1026.2 hPa ENE 5.8 km/h 7.4 km/h 70% 0.0 mm CLR
17:55 13.6 °C 8.4 °C 1026.2 hPa NE 5.8 km/h 7.4 km/h 71% 0.0 mm CLR
18:00 13.5 °C 8.6 °C 1026.2 hPa NE 4.8 km/h 8.0 km/h 72% 0.0 mm CLR
18:04 13.4 °C 8.4 °C 1026.3 hPa ENE 5.8 km/h 7.4 km/h 72% 0.0 mm CLR
18:09 13.3 °C 8.6 °C 1026.3 hPa ENE 5.0 km/h 5.6 km/h 73% 0.0 mm CLR
18:15 13.2 °C 8.4 °C 1026.3 hPa ENE 4.8 km/h 8.0 km/h 73% 0.0 mm CLR
18:19 13.1 °C 8.6 °C 1026.3 hPa ENE 4.7 km/h 7.4 km/h 74% 0.0 mm CLR
18:25 13.1 °C 8.6 °C 1026.3 hPa ENE 4.7 km/h 7.4 km/h 74% 0.0 mm CLR
18:29 12.9 °C 8.6 °C 1026.3 hPa ENE 3.9 km/h 7.4 km/h 75% 0.0 mm CLR
18:35 12.8 °C 8.5 °C 1026.4 hPa ENE 3.9 km/h 7.4 km/h 75% 0.0 mm CLR
18:40 12.8 °C 8.7 °C 1026.4 hPa ENE 3.9 km/h 5.6 km/h 76% 0.0 mm CLR
18:44 12.7 °C 8.6 °C 1026.4 hPa ENE 3.9 km/h 5.6 km/h 76% 0.0 mm CLR
18:50 12.7 °C 8.6 °C 1026.5 hPa ENE 3.2 km/h 3.7 km/h 76% 0.0 mm CLR
18:55 12.6 °C 8.4 °C 1026.5 hPa ENE 3.2 km/h 4.8 km/h 76% 0.0 mm CLR
18:59 12.4 °C 8.5 °C 1026.5 hPa ENE 3.2 km/h 3.7 km/h 77% 0.0 mm CLR
19:04 12.2 °C 8.5 °C 1026.8 hPa ENE 3.2 km/h 3.7 km/h 78% 0.0 mm CLR
19:09 12.2 °C 8.5 °C 1026.8 hPa ENE 2.9 km/h   78% 0.0 mm CLR
19:15 12.0 °C 8.4 °C 1026.8 hPa ENE 2.9 km/h 5.0 km/h 79% 0.0 mm CLR
19:19 11.9 °C 8.4 °C 1026.8 hPa ENE 2.9 km/h 5.6 km/h 79% 0.0 mm CLR
19:25 11.8 °C 8.4 °C 1026.8 hPa ENE 2.9 km/h 3.7 km/h 80% 0.0 mm CLR
19:29 11.7 °C 8.6 °C 1026.8 hPa ENE 3.2 km/h 4.7 km/h 81% 0.0 mm CLR
19:35 11.7 °C 8.6 °C 1027.0 hPa ENE 3.2 km/h 3.7 km/h 81% 0.0 mm CLR
19:39 11.7 °C 8.6 °C 1027.0 hPa ENE 2.9 km/h   81% 0.0 mm CLR
19:44 11.6 °C 8.4 °C 1027.0 hPa ENE 2.9 km/h   81% 0.0 mm CLR
19:49 11.6 °C 8.4 °C 1027.1 hPa Calm     81% 0.0 mm FEW
19:55 11.6 °C 8.4 °C 1027.1 hPa Calm     81% 0.0 mm FEW
19:59 11.5 °C 8.3 °C 1027.1 hPa Calm     81% 0.0 mm FEW
20:05 11.4 °C 8.3 °C 1027.2 hPa Calm   4.8 km/h 81% 0.0 mm FEW
20:09 11.3 °C 8.2 °C 1027.2 hPa ENE 2.3 km/h 5.8 km/h 81% 0.0 mm FEW
20:15 11.2 °C 8.2 °C 1027.2 hPa ENE 2.3 km/h 7.4 km/h 82% 0.0 mm FEW
20:20 11.2 °C 8.2 °C 1027.3 hPa ENE 3.2 km/h 8.0 km/h 82% 0.0 mm CLR
20:25 11.2 °C 8.2 °C 1027.3 hPa ENE 3.9 km/h 3.9 km/h 82% 0.0 mm CLR
20:29 11.1 °C 8.2 °C 1027.3 hPa ENE 3.2 km/h   82% 0.0 mm CLR
20:35 11.0 °C 7.9 °C 1027.4 hPa ENE 3.2 km/h   81% 0.0 mm CLR
20:39 10.9 °C 7.8 °C 1027.4 hPa Calm   7.4 km/h 81% 0.0 mm CLR
20:45 10.7 °C 7.8 °C 1027.4 hPa Calm   3.7 km/h 82% 0.0 mm CLR
20:49 10.7 °C 7.8 °C 1027.5 hPa ENE 3.2 km/h   82% 0.0 mm CLR
20:55 10.6 °C 7.8 °C 1027.5 hPa ENE 3.2 km/h   83% 0.0 mm CLR
21:00 10.6 °C 7.8 °C 1027.5 hPa Calm     83% 0.0 mm CLR
21:05 10.6 °C 8.0 °C 1027.6 hPa Calm     84% 0.0 mm CLR
21:10 10.5 °C 7.6 °C 1027.6 hPa Calm   3.7 km/h 82% 0.0 mm CLR
21:15 10.3 °C 7.3 °C 1027.6 hPa Calm   3.2 km/h 82% 0.0 mm CLR
21:19 10.1 °C 7.2 °C 1027.7 hPa SSE 2.3 km/h 5.6 km/h 82% 0.0 mm CLR
21:25 10.0 °C 7.2 °C 1027.7 hPa SSE 2.3 km/h 3.7 km/h 83% 0.0 mm CLR
21:29 9.9 °C 6.9 °C 1027.7 hPa SSE 2.3 km/h 3.7 km/h 82% 0.0 mm CLR
21:35 9.7 °C 6.6 °C 1028.0 hPa SSE 2.3 km/h 7.4 km/h 81% 0.0 mm CLR
21:39 9.6 °C 6.3 °C 1028.0 hPa South 3.9 km/h 7.4 km/h 80% 0.0 mm CLR
21:45 9.4 °C 5.9 °C 1028.0 hPa South 3.9 km/h 9.3 km/h 79% 0.0 mm CLR
21:49 9.4 °C 5.9 °C 1028.1 hPa SSW 6.4 km/h 7.4 km/h 79% 0.0 mm FEW
21:55 9.4 °C 6.1 °C 1028.1 hPa SSW 6.4 km/h 9.3 km/h 80% 0.0 mm FEW
22:00 9.4 °C 6.1 °C 1028.1 hPa South 8.0 km/h 11.3 km/h 80% 0.0 mm FEW
22:05 9.4 °C 6.1 °C 1028.1 hPa SSW 6.4 km/h 11.1 km/h 80% 0.0 mm FEW
22:09 9.4 °C 6.3 °C 1028.1 hPa SW 6.9 km/h 9.3 km/h 81% 0.0 mm FEW
22:15 9.4 °C 6.3 °C 1028.1 hPa SW 8.0 km/h 9.7 km/h 81% 0.0 mm FEW
22:19 9.4 °C 6.3 °C 1028.2 hPa SW 5.0 km/h 7.4 km/h 81% 0.0 mm CLR
22:25 9.4 °C 6.3 °C 1028.2 hPa SW 5.0 km/h   81% 0.0 mm CLR
22:29 9.4 °C 6.5 °C 1028.2 hPa SW 2.9 km/h 3.7 km/h 82% 0.0 mm CLR
22:35 9.4 °C 6.5 °C 1028.2 hPa SW 3.2 km/h 8.0 km/h 82% 0.0 mm CLR
22:40 9.3 °C 6.2 °C 1028.2 hPa SSW 3.9 km/h 7.4 km/h 81% 0.0 mm CLR
22:45 9.2 °C 6.1 °C 1028.2 hPa SSW 3.9 km/h 9.3 km/h 81% 0.0 mm CLR
22:49 9.2 °C 6.1 °C 1028.2 hPa SSW 5.8 km/h 7.4 km/h 81% 0.0 mm FEW
22:55 9.1 °C 6.2 °C 1028.2 hPa SW 5.8 km/h 7.4 km/h 82% 0.0 mm FEW
22:59 9.1 °C 6.2 °C 1028.2 hPa SW 4.7 km/h 5.8 km/h 82% 0.0 mm FEW
23:05 9.1 °C 6.2 °C 1028.2 hPa SSW 4.7 km/h 7.4 km/h 82% 0.0 mm FEW
23:09 9.1 °C 6.2 °C 1028.2 hPa South 4.7 km/h 9.3 km/h 82% 0.0 mm FEW
23:15 9.1 °C 6.2 °C 1028.2 hPa SW 4.7 km/h 9.3 km/h 82% 0.0 mm FEW
23:19 9.1 °C 6.2 °C 1028.3 hPa SW 6.4 km/h 9.5 km/h 82% 0.0 mm CLR
23:25 9.2 °C 6.3 °C 1028.3 hPa WSW 6.4 km/h 9.3 km/h 82% 0.0 mm CLR
23:29 9.2 °C 6.3 °C 1028.3 hPa SW 6.4 km/h 10.0 km/h 82% 0.0 mm CLR
23:35 9.3 °C 6.3 °C 1028.2 hPa SW 8.0 km/h 9.7 km/h 82% 0.0 mm CLR
23:40 9.2 °C 6.3 °C 1028.2 hPa SW 6.4 km/h 7.4 km/h 82% 0.0 mm CLR
23:44 9.2 °C 6.3 °C 1028.2 hPa SW 6.4 km/h 7.4 km/h 82% 0.0 mm CLR
23:49 9.2 °C 6.3 °C 1028.3 hPa SSW 5.0 km/h 9.3 km/h 82% 0.0 mm SCT
23:55 9.2 °C 6.1 °C 1028.3 hPa SSW 5.0 km/h 5.6 km/h 81% 0.0 mm SCT
Murcia-Puente Tocinos, España
Compliments of Weather Underground - 2.75 mb

La estación de MeteoMurcia.com, publica sus datos en los siguientes proyectos:

Weather Underground PWS IMURCIAP2 Meteoclimatic www.awekas.at

W3Counter
Web Analytics